Regional Weather Roundup
Issued by NWS Boston, MA

Current Version | Previous Version | Text Only | Print | Product List | Glossary Off
Versions: 1 2 3 4 5 6 7 8 9 10 11 12 13 14 15 16 17 18 19 20 21 22 23 24 25 26 27

000
ASUS41 KBOX 251410
RWRBOX

REGIONAL WEATHER ROUNDUP
NATIONAL WEATHER SERVICE TAUNTON MA
1000 AM EDT TUE APR 25 2017

NOTE:  "FAIR" INDICATES FEW OR NO CLOUDS BELOW 12,000 FEET WITH NO
SIGNIFICANT WEATHER AND/OR OBSTRUCTIONS TO VISIBILITY.

MAZALL-251500-
EASTERN MASSACHUSETTS

CITY           SKY/WX    TMP DP  RH WIND       PRES   REMARKS
BOSTON         CLOUDY    48  45  89 NE18      30.29R
BEVERLY        CLOUDY    48  46  93 NE12      30.30R
LAWRENCE       LGT RAIN  50  45  83 NE13      30.32R
BEDFORD        CLOUDY    50  44  80 E13       30.29R
BLUE HILL        N/A     46  43  89 NE16G26   30.25R
NORWOOD        CLOUDY    49  46  90 NE10G18   30.28R
MARSHFIELD     CLOUDY    48  45  87 NE13      30.27S
PLYMOUTH       LGT RAIN  48  45  89 NE10      30.25S
TAUNTON        CLOUDY    49  45  86 NE12G18   30.24S
NEW BEDFORD    CLOUDY    50  48  93 NE15      30.22S
$$

MAZALL-251500-
CAPE COD AND THE ISLANDS

CITY           SKY/WX    TMP DP  RH WIND       PRES   REMARKS
FALMOUTH       CLOUDY    52  48  87 MISG      30.23S
HYANNIS        LGT RAIN  52  48  86 E12G20    30.21F
CHATHAM        CLOUDY    49  48  97 E16G23    30.25F
PROVINCETOWN   PTSUNNY   48  44  86 E18G25    30.27F
NANTUCKET      CLOUDY    49  47  93 NE16G24   30.19F
MARTHAS VNYRD  RAIN      51  47  86 E18       30.21R FOG
$$

MAZALL-251500-
CENTRAL AND WESTERN MASSACHUSETTS

CITY           SKY/WX    TMP DP  RH WIND       PRES   REMARKS
WORCESTER      CLOUDY    46  44  93 NE16G23   30.25R
FITCHBURG      LGT RAIN  49  46  90 NE7       30.29R
ORANGE         LGT RAIN  48  47  96 NE7       30.26S
SPRINGFIELD    CLOUDY    51  48  91 NE12      30.23S
WESTFIELD      CLOUDY    50  49  96 N9        30.23S
NORTH ADAMS    LGT RAIN  49  42  77 E22G32    30.20S
PITTSFIELD     LGT RAIN  48  43  82 NE10      30.18S
$$

RIZALL-251500-
RHODE ISLAND

CITY           SKY/WX    TMP DP  RH WIND       PRES   REMARKS
PROVIDENCE     LGT RAIN  51  50  96 NE9       30.24R
NEWPORT        LGT RAIN  53  51  93 NE12G18   30.20R
BLOCK ISLAND   CLOUDY    48  47  96 NE14G22   30.18R
SMITHFIELD     CLOUDY    48  46  93 E8        30.24S
WESTERLY       CLOUDY    55  52  89 NE10G22   30.18S
$$

CTZALL-251500-
CONNECTICUT

CITY           SKY/WX    TMP DP  RH WIND       PRES   REMARKS
BRADLEY INTL   LGT RAIN  51  49  92 N12       30.21F
HARTFORD       CLOUDY    52  49  89 N9        30.20S
BRIDGEPORT     CLOUDY    56  49  77 NE17      30.13S
DANBURY        CLOUDY    51  49  92 NE10      30.15S
GROTON         CLOUDY    55  51  86 NE20G25   30.16S
NEW HAVEN      CLOUDY    56  50  80 NE13G21   30.14F
CHESTER        CLOUDY    54  52  94 E12       30.16F
MERIDEN        LGT RAIN  53  49  86 N8        30.18S
WILLIMANTIC    LGT RAIN  54  50  86 NE10      30.21R
OXFORD         CLOUDY    50  45  81 E9G20     30.16F
$$

MEZ002-015-021-024-NHZ003-005-008-011-012-014-VTZ005-008-251500-
NORTHERN NEW ENGLAND

CITY           SKY/WX    TMP DP  RH WIND       PRES   REMARKS
PORTLAND ME    LGT RAIN  45  42  89 NE13      30.37F
BANGOR ME      PTSUNNY   49  24  37 E8        30.43S
CONCORD NH     LGT RAIN  47  44  90 NE7       30.33S
MANCHESTER NH  CLOUDY    48  43  82 NE9G18    30.30S
NASHUA NH      LGT RAIN  49  46  90 NE8       30.30F
PORTSMOUTH NH  LGT RAIN  47  44  92 NE15      30.32F
JAFFREY NH     LGT RAIN  47  45  93 VRB6      30.28S
KEENE NH       LGT RAIN  48  44  86 N6        30.29R
BURLINGTON VT  PTSUNNY   52  34  50 SW5       30.24S
MT. WASHINGTON MOSUNNY   30  27  86 SE40        N/A  WCI  13
$$

NYZ052-076-251500-
EASTERN NEW YORK

CITY           SKY/WX    TMP DP  RH WIND       PRES   REMARKS
ALBANY         LGT RAIN  47  37  68 N5        30.22R
NEW YORK CITY  CLOUDY    53  49  86 NE23G31   30.10R
$$

ANZALL-251500-
MARINE OBSERVATIONS

STATION/POSITION TIME  TEMP    WIND        PRES    VSBY  WAVE
                       AIR SEA DIR/SP/G                  HT/PER
                 (UTC) (F)     (DEG/KT/KT) (MB)    (MI)  (FT/S)
BOSTON BUOY      1250   47 46   60/ 16/ 17 1024.1          3/10
BUZZARDS BAY     1400   50      60/ 26/ 28 1022.5R
NANTUCKET SOUND  1350      49              1022.5F         2/ 4
MASS BAY-STELLWA 1304   46 45   40/ 16/ 17 1024.7F         2/ 3
ISLE OF SHOALS   1400   43      30/ 21/ 23 1026.2F
S OF BLOCK IS    1355      47                N/A           5/ 5
$$

......................KEY.........................
  SKY/WX - SKY CONDITION/PRESENT WEATHER
  TMP    - TEMPERATURE IN FAHRENHEIT
  DWPT   - DEWPOINT IN FAHRENHEIT
  RH     - RELATIVE HUMIDITY IN PERCENT
  WIND   - DIRECTION AND SPEED IN MPH
  PRES   - MEAN SEA LEVEL PRESSURE IN INCHES OF HG
  WCI    - WIND CHILL INDEX
  VSB    - VISIBILITY IN MILES
  HX     - HEAT INDEX
  TC     - TEMPERATURE IN CELSIUS
  VRB    - VARIABLE WIND DIRECTION
  N/A    - NOT AVAILABLE




USA.gov is the U.S. government's official web portal to all federal, state and local government web resources and services.